sat.trackr.live / text

‹ back to catalog

STARLINK-3677

NORAD 51970 · 2022-025Q

PAYLOAD ACTIVE UNKNOWN

§ Identity

Operator
Country
US
Launch date
2022-03-09
Launch site
AFETR
Launch vehicle
Mass (kg)
RCS (m²)

Purposes: comms

External: N2YO · Heavens-Above · Gunter

§ Orbital elements

Epoch: 2026-05-24T23:27:51.717024Z

Period
94.11 min
Inclination
53.1603°
Eccentricity
0.0001124
Mean motion
15.30188149 rev/d
Perigee alt
474.5 km
Apogee alt
476.0 km
Semi-major
6,853.4 km
B*
1.8278e-5
RAAN
42.3645°
Arg perigee
90.0240°
Mean anomaly
270.0890°
Rev number
23,251

§ Raw data

STARLINK-36771 51970U 22025Q   26144.97768191  .00000182  00000+0  18278-4 0  99982 51970  53.1603  42.3645 0001124  90.0240 270.0890 15.30188149232518

JSON: /api/v1/satellites/51970 · /tle

For live sub-satellite position, see the globe view (requires WebGL).

§ Visibility from observer

Set your observer location to see the next 7 days of passes ≥ 10°. The values pass through the URL so the page stays shareable.

No JS? Fill the form by hand. The geolocation button needs JavaScript.